STARLINK-3763 (52556 NORAD) Tracking and Keplerian Element Data

This shows tracking and keplerian element data for the satellite.

Feedback or suggestion? Click here.




ElementValue
Catalog52556
NameSTARLINK-3763
Epoch Orbit130
Epoch Day167.08334491
Epoch Year2022
RAAN132.2743
Inclination53.2173
Eccentricity0.0001875
Argument of Perigee38.231
Mean Anonmoly127.4947
Mean Motion15.32713683
Decay Rate-0.00840843
L11 52556U 22051Z 22167.08334491 -.00840843 00000+0 -28424-1 0 9992
L22 52556 53.2173 132.2743 0001875 38.2310 127.4947 15.32713683 1303

Live tracking and technical data element details for STARLINK-3763 (NORAD 52556). STARLINK-3763 can be tracked NOW for your location showing map with azimuth and elevation plus other details from your city location.

Track the satellite on the map from your city or location and see movement details for azimuth, elevation, latitude, longitude, range, height, and movement on the map or in text.







IsCatalogInMostPopularTable: catalog: 52556, numindb: 3
Update: records affected: 1



GetName: 52556 STARLINK-3763

Hit Count: updated at: Mon, 27 Jun 2022 05:02:25 GMT